EW7929 Weather Reports


time (UTC)temp
C
wind
direction
speed
KPH
gust
KPH
rain 1hr
cm
rain 24hr
cm
rain mn
cm
humidity
%
barometer
mb
20260506113231 25 251 1.6 9.7 0.00 0.00 0.00 32 1012.8
20260506112733 24 319 3.2 9.7 0.00 0.00 0.00 31 1012.9
20260506112231 24 265 4.8 12.9 0.00 0.00 0.00 31 1012.9
20260506111743 24 264 3.2 12.9 0.00 0.00 0.00 31 1013.0
20260506111228 24 264 3.2 8.0 0.00 0.00 0.00 31 1013.0
20260506110229 24 322 3.2 11.3 0.00 0.00 0.00 31 1013.2
20260506105729 24 312 3.2 12.9 0.00 0.00 0.00 32 1013.2
20260506105228 24 287 4.8 12.9 0.00 0.00 0.00 31 1013.3
20260506104728 23 270 3.2 9.7 0.00 0.00 0.00 31 1013.3
20260506104229 24 329 1.6 11.3 0.00 0.00 0.00 31 1013.4
20260506103730 24 293 3.2 11.3 0.00 0.00 0.00 31 1013.4
20260506102726 23 225 3.2 11.3 0.00 0.00 0.00 31 1013.5
20260506102227 23 262 1.6 11.3 0.00 0.00 0.00 31 1013.5
20260506101725 23 293 3.2 8.0 0.00 0.00 0.00 31 1013.6
20260506101224 23 228 4.8 14.5 0.00 0.00 0.00 32 1013.6
20260506100724 23 293 3.2 14.5 0.00 0.00 0.00 32 1013.7
20260506100236 23 290 1.6 9.7 0.00 0.00 0.00 31 1013.7
20260506095725 23 291 1.6 9.7 0.00 0.00 0.00 30 1013.8
20260506095227 23 239 3.2 9.7 0.00 0.00 0.00 31 1013.8
20260506094723 23 290 3.2 9.7 0.00 0.00 0.00 32 1013.9
20260506094222 23 262 3.2 8.0 0.00 0.00 0.00 31 1013.9
20260506093722 22 259 3.2 8.0 0.00 0.00 0.00 33 1014.0
20260506093221 23 285 1.6 8.0 0.00 0.00 0.00 31 1014.0
20260506092723 23 277 1.6 8.0 0.00 0.00 0.00 30 1014.1
20260506092222 23 214 1.6 6.4 0.00 0.00 0.00 32 1014.1
20260506091721 23 338 1.6 6.4 0.00 0.00 0.00 32 1014.1
20260506091223 22 56 1.6 6.4 0.00 0.00 0.00 34 1014.2
20260506090723 22 251 0.0 6.4 0.00 0.00 0.00 35 1014.2
20260506090222 21 270 1.6 6.4 0.00 0.00 0.00 37 1014.2
20260506085723 21 169 3.2 9.7 0.00 0.00 0.00 35 1014.4
20260506085221 21 164 1.6 9.7 0.00 0.00 0.00 35 1014.5
20260506084723 22 183 1.6 8.0 0.00 0.00 0.00 34 1014.5
20260506084223 21 255 3.2 9.7 0.00 0.00 0.00 35 1014.6
20260506083720 21 262 1.6 9.7 0.00 0.00 0.00 35 1014.6
20260506082717 21 248 1.6 9.7 0.00 0.00 0.00 36 1014.6
20260506082214 20 245 1.6 6.4 0.00 0.00 0.00 35 1014.6
20260506081713 20 189 1.6 8.0 0.00 0.00 0.00 37 1014.6
20260506081215 20 228 1.6 8.0 0.00 0.00 0.00 39 1014.6
20260506080711 20 172 0.0 4.8 0.00 0.00 0.00 39 1014.6
20260506073147 18 239 0.0 3.2 0.00 0.00 0.00 41 1014.7
20260506072138 17 239 1.6 6.4 0.00 0.00 0.00 44 1014.8
20260506071634 17 239 1.6 6.4 0.00 0.00 0.00 44 1014.8
20260506070635 17 232 0.0 4.8 0.00 0.00 0.00 45 1014.9
20260506070133 16 124 0.0 4.8 0.00 0.00 0.00 45 1015.0
20260506062128 14 82 0.0 3.2 0.00 0.00 0.00 52 1015.2
20260506061629 14 108 0.0 3.2 0.00 0.00 0.00 52 1015.2
20260506061126 14 109 0.0 3.2 0.00 0.00 0.00 53 1015.2
20260506060127 13 86 0.0 3.2 0.00 0.00 0.00 55 1015.3
20260506051027 11 45 0.0 1.6 0.00 0.00 0.00 60 1015.3
20260506050521 11 46 0.0 1.6 0.00 0.00 0.00 61 1015.3
20260506045004 11 326 0.0 1.6 0.00 0.00 0.00 62 1015.3
20260506044500 10 326 0.0 1.6 0.00 0.00 0.00 63 1015.3
20260506043951 10 326 0.0 1.6 0.00 0.00 0.00 64 1015.2
20260506043446 10 326 0.0 1.6 0.00 0.00 0.00 64 1015.3
20260506042940 10 326 0.0 1.6 0.00 0.00 0.00 63 1015.2
20260506042434 10 326 0.0 0.0 0.00 0.00 0.00 63 1015.3
20260506041927 10 326 0.0 0.0 0.00 0.00 0.00 65 1015.2
20260506041422 9 326 0.0 0.0 0.00 0.00 0.00 67 1015.2
20260506040916 8 326 0.0 1.6 0.00 0.00 0.00 69 1015.2
20260506040409 8 326 0.0 1.6 0.00 0.00 0.00 70 1015.1
20260506035903 7 326 0.0 1.6 0.00 0.00 0.00 72 1015.1
20260506035358 7 326 0.0 1.6 0.00 0.00 0.00 72 1015.1
20260506034851 7 326 0.0 1.6 0.00 0.00 0.00 72 1015.0
20260506034345 7 326 0.0 1.6 0.00 0.00 0.00 73 1015.0
20260506033839 6 326 0.0 1.6 0.00 0.00 0.00 74 1014.9
20260506032828 6 326 0.0 1.6 0.00 0.00 0.00 75 1014.9
20260506032322 6 326 0.0 0.0 0.00 0.00 0.00 75 1014.9
20260506031816 6 326 0.0 0.0 0.00 0.00 0.00 75 1014.8
20260506031309 6 326 0.0 0.0 0.00 0.00 0.00 74 1014.7
20260506030816 7 326 0.0 0.0 0.00 0.00 0.00 74 1014.7
20260506030258 7 326 0.0 0.0 0.00 0.00 0.00 73 1014.6
20260506025751 7 326 0.0 0.0 0.00 0.00 0.00 73 1014.6
20260506024739 7 326 0.0 1.6 0.00 0.00 0.00 73 1014.6
20260506024234 7 326 0.0 0.0 0.00 0.00 0.00 72 1014.5
20260506023727 7 326 0.0 0.0 0.00 0.00 0.00 72 1014.4
20260506023221 7 326 0.0 1.6 0.00 0.00 0.00 72 1014.4
20260506022715 7 326 0.0 1.6 0.00 0.00 0.00 73 1014.4
20260506021705 7 314 0.0 1.6 0.00 0.00 0.00 72 1014.4
20260506021157 7 314 0.0 1.6 0.00 0.00 0.00 72 1014.2
20260506020651 7 314 0.0 1.6 0.00 0.00 0.00 71 1014.2
20260506020145 7 314 0.0 1.6 0.00 0.00 0.00 70 1014.2
20260506015640 7 314 0.0 1.6 0.00 0.00 0.00 71 1014.4
20260506015134 8 311 0.0 1.6 0.00 0.00 0.00 71 1014.2
20260506014627 8 311 0.0 0.0 0.00 0.00 0.00 71 1014.4
20260506014121 8 312 0.0 1.6 0.00 0.00 0.00 71 1014.2
20260506013615 8 312 0.0 1.6 0.00 0.00 0.00 70 1014.2
20260506013112 8 312 0.0 0.0 0.00 0.00 0.00 69 1014.1
20260506012612 8 311 0.0 1.6 0.00 0.00 0.00 68 1014.1
20260506012109 8 311 0.0 1.6 0.00 0.00 0.00 68 1014.0
20260506011611 9 328 0.0 1.6 0.00 0.00 0.00 68 1014.1
20260506011122 9 329 0.0 1.6 0.00 0.00 0.00 67 1014.1
20260506010608 9 328 0.0 1.6 0.00 0.00 0.00 67 1014.0
20260506010108 9 328 0.0 1.6 0.00 0.00 0.00 67 1014.0
20260506005103 9 329 0.0 1.6 0.00 0.00 0.00 67 1014.0
20260506004602 9 328 0.0 1.6 0.00 0.00 0.00 67 1013.9
20260506004103 9 329 0.0 0.0 0.00 0.00 0.00 66 1013.9
20260506003602 10 328 0.0 0.0 0.00 0.00 0.00 66 1013.9
20260506003100 10 329 0.0 0.0 0.00 0.00 0.00 65 1013.8
20260506002601 10 329 0.0 0.0 0.00 0.00 0.00 65 1013.8
20260506002100 10 328 0.0 1.6 0.00 0.00 0.00 65 1013.7
20260506001602 10 329 0.0 1.6 0.00 0.00 0.00 65 1013.8
20260506001056 10 328 0.0 1.6 0.00 0.00 0.00 65 1013.8
20260506000550 10 333 0.0 1.6 0.00 0.00 0.00 65 1013.9
20260506000059 10 321 0.0 1.6 0.00 0.00 0.00 64 1013.8
20260505235548 10 326 0.0 1.6 0.00 0.00 0.00 64 1013.8
20260505235048 10 326 0.0 1.6 0.00 0.00 0.00 64 1013.8
20260505234548 10 326 0.0 1.6 0.00 0.00 0.00 64 1013.8
20260505234048 10 327 0.0 1.6 0.00 0.00 0.00 64 1013.9
20260505233546 10 326 0.0 1.6 0.00 0.00 0.00 63 1013.9
20260505233044 10 352 0.0 1.6 0.00 0.00 0.00 62 1013.9
20260505232544 10 354 0.0 1.6 0.00 0.00 0.00 63 1013.8
20260505231542 10 354 0.0 1.6 0.00 0.00 0.00 62 1013.9
20260505231041 10 354 0.0 1.6 0.00 0.00 0.00 62 1013.9
20260505230537 10 29 0.0 1.6 0.00 0.00 0.00 62 1014.0
20260505230035 10 32 0.0 1.6 0.00 0.00 0.00 62 1014.0
20260505225537 10 299 0.0 1.6 0.00 0.00 0.00 62 1014.0
20260505225035 10 298 0.0 1.6 0.00 0.00 0.00 62 1014.0
20260505224532 11 298 0.0 1.6 0.00 0.00 0.00 61 1014.0
20260505223533 11 321 0.0 1.6 0.00 0.00 0.00 60 1014.0
20260505223031 11 295 0.0 1.6 0.00 0.00 0.00 59 1014.0
20260505222529 11 295 0.0 1.6 0.00 0.00 0.00 59 1014.0
20260505222028 11 295 0.0 1.6 0.00 0.00 0.00 58 1013.9
20260505221528 11 295 0.0 1.6 0.00 0.00 0.00 59 1013.9
20260505221027 11 294 0.0 0.0 0.00 0.00 0.00 59 1013.9
20260505220530 11 295 0.0 1.6 0.00 0.00 0.00 58 1014.0
20260505220035 12 298 0.0 1.6 0.00 0.00 0.00 58 1014.0
20260505215523 12 274 0.0 1.6 0.00 0.00 0.00 57 1013.9
20260505215016 12 321 0.0 3.2 0.00 0.00 0.00 57 1014.0
20260505214510 12 321 0.0 3.2 0.00 0.00 0.00 57 1013.9
20260505213458 12 323 1.6 6.4 0.00 0.00 0.00 56 1013.9
20260505212952 12 328 1.6 4.8 0.00 0.00 0.00 55 1013.9
20260505212446 13 327 0.0 6.4 0.00 0.00 0.00 54 1013.8
20260505211940 13 271 0.0 6.4 0.00 0.00 0.00 53 1013.8
20260505210929 13 297 0.0 1.6 0.00 0.00 0.00 51 1013.8
20260505210423 14 297 0.0 1.6 0.00 0.00 0.00 50 1013.8
20260505205917 14 290 1.6 8.0 0.00 0.00 0.00 49 1013.9
20260505204401 15 294 0.0 1.6 0.00 0.00 0.00 41 1013.7
20260505203856 15 277 0.0 3.2 0.00 0.00 0.00 41 1013.8
20260505202335 16 297 0.0 4.8 0.00 0.00 0.00 41 1013.7
20260505201828 16 304 0.0 4.8 0.00 0.00 0.00 41 1013.6
20260505201322 16 274 0.0 1.6 0.00 0.00 0.00 40 1013.6
20260505200311 16 264 0.0 1.6 0.00 0.00 0.00 40 1013.5
20260505195804 16 284 0.0 1.6 0.00 0.00 0.00 40 1013.5
20260505195259 16 308 0.0 1.6 0.00 0.00 0.00 40 1013.4
20260505194752 17 288 0.0 1.6 0.00 0.00 0.00 38 1013.4
20260505194245 17 304 0.0 1.6 0.00 0.00 0.00 38 1013.4
20260505193233 17 298 1.6 6.4 0.00 0.00 0.00 38 1013.3
20260505192726 17 264 1.6 6.4 0.00 0.00 0.00 39 1013.3
20260505192220 17 264 1.6 6.4 0.00 0.00 0.00 40 1013.2
20260505191715 17 264 0.0 6.4 0.00 0.00 0.00 40 1013.2
20260505191209 17 264 0.0 1.6 0.00 0.00 0.00 40 1013.1
20260505190703 17 291 0.0 1.6 0.00 0.00 0.00 40 1013.0
20260505190156 17 316 0.0 1.6 0.00 0.00 0.00 40 1012.9
20260505185650 17 264 0.0 1.6 0.00 0.00 0.00 39 1012.9
20260505185144 17 297 0.0 3.2 0.00 0.00 0.00 39 1012.8
20260505184639 17 302 1.6 11.3 0.00 0.00 0.00 39 1012.8
20260505184133 17 324 3.2 11.3 0.00 0.00 0.00 39 1012.7
20260505183627 18 313 4.8 16.1 0.00 0.00 0.00 39 1012.6
20260505182108 18 351 4.8 14.5 0.00 0.00 0.00 38 1012.4
20260505181602 18 321 4.8 17.7 0.00 0.00 0.00 38 1012.4
20260505180550 18 349 6.4 14.5 0.00 0.00 0.00 37 1012.4
20260505175538 19 7 4.8 14.5 0.00 0.00 0.00 37 1012.2
20260505175032 19 330 4.8 12.9 0.00 0.00 0.00 36 1012.2
20260505174528 19 11 4.8 14.5 0.00 0.00 0.00 36 1012.2
20260505174022 20 323 4.8 16.1 0.00 0.00 0.00 36 1012.2
20260505173008 20 354 6.4 12.9 0.00 0.00 0.00 36 1012.1
20260505172502 20 326 4.8 12.9 0.00 0.00 0.00 36 1012.1
20260505171450 20 1 1.6 9.7 0.00 0.00 0.00 36 1011.9
20260505170944 21 311 1.6 8.0 0.00 0.00 0.00 37 1011.9
20260505170438 21 336 1.6 8.0 0.00 0.00 0.00 36 1011.9
20260505165932 21 344 0.0 4.8 0.00 0.00 0.00 36 1011.8
20260505164920 22 341 0.0 4.8 0.00 0.00 0.00 35 1011.8
20260505164414 22 324 0.0 4.8 0.00 0.00 0.00 34 1011.8
20260505163908 22 330 0.0 3.2 0.00 0.00 0.00 33 1011.8
20260505163402 22 340 0.0 1.6 0.00 0.00 0.00 32 1011.8
20260505162902 22 340 0.0 3.2 0.00 0.00 0.00 32 1011.8
20260505162358 23 338 1.6 4.8 0.00 0.00 0.00 31 1011.8
20260505161901 23 323 1.6 6.4 0.00 0.00 0.00 30 1011.8
20260505161358 23 343 1.6 6.4 0.00 0.00 0.00 28 1011.8
20260505160356 24 317 1.6 8.0 0.00 0.00 0.00 28 1011.9
20260505153350 25 325 0.0 3.2 0.00 0.00 0.00 22 1012.1
20260505152337 25 344 1.6 6.4 0.00 0.00 0.00 22 1012.1
20260505151831 25 22 1.6 4.8 0.00 0.00 0.00 22 1012.0
20260505151325 25 22 3.2 9.7 0.00 0.00 0.00 21 1012.1
20260505150822 25 99 3.2 9.7 0.00 0.00 0.00 22 1012.1
20260505150313 25 34 3.2 9.7 0.00 0.00 0.00 20 1012.2
20260505140209 26 27 3.2 11.3 0.00 0.00 0.00 22 1012.6
20260505130218 25 266 4.8 11.3 0.00 0.00 0.00 22 1013.4
20260505124709 25 103 3.2 12.9 0.00 0.00 0.00 23 1013.5
20260505124202 25 231 4.8 16.1 0.00 0.00 0.00 24 1013.6
20260505123656 25 285 3.2 16.1 0.00 0.00 0.00 24 1013.7
20260505122647 25 290 1.6 8.0 0.00 0.00 0.00 24 1013.7
20260505122149 25 290 3.2 14.5 0.00 0.00 0.00 23 1013.7
20260505121649 25 255 3.2 14.5 0.00 0.00 0.00 24 1013.8
20260505121149 24 293 4.8 12.9 0.00 0.00 0.00 22 1013.8
20260505120648 24 291 4.8 12.9 0.00 0.00 0.00 22 1013.9
20260505115649 24 149 3.2 9.7 0.00 0.00 0.00 24 1013.9
20260505115149 25 250 3.2 9.7 0.00 0.00 0.00 23 1013.9
20260505114647 25 294 3.2 9.7 0.00 0.00 0.00 24 1014.0
20260505114145 24 262 3.2 9.7 0.00 0.00 0.00 24 1014.1
20260505113644 24 197 4.8 11.3 0.00 0.00 0.00 24 1014.1